2021-053B

Last updated on Sun Jun 20 2021 00:02:12 GMT+0000 (Coordinated Universal Time)

1 48853U 21053B 21170.68221021 .00530108 76040-5 37828-3 0 9992 2 48853 41.4585 266.9197 0090496 143.7572 4.2479 16.06304191 416

Satellite not in orbit

2021-053B